FW8369 Weather Reports


Display with metric or nautical units.
time (UTC)temp
F
wind
direction
speed
MPH
gust
MPH
rain 1hr
in
rain 24hr
in
rain mn
in
humidity
%
barometer
mb
20260902034904 86 339 0.0 1.0 0.00 0.83 0.00 80 999.1
20260902034404 86 287 0.0 2.0 0.00 1.03 0.00 80 999.1
20260902033904 86 16 0.0 0.0 0.00 1.09 0.00 79 999.2
20260902032904 87 248 1.0 3.0 0.00 1.15 0.00 78 999.1
20260902032404 87 283 0.0 2.0 0.00 1.16 0.00 78 999.0
20260902031903 87 281 0.0 1.0 0.00 1.16 0.00 79 999.1
20260902031404 86 293 0.0 0.0 0.00 1.16 0.00 81 999.2
20260902030904 85 306 0.0 2.0 0.00 1.16 0.00 82 999.2
20260902030404 84 347 0.0 1.0 0.00 1.16 0.00 82 999.2
20260902025904 85 7 2.0 3.0 0.00 1.17 0.00 81 999.1
20260902024904 84 287 0.0 2.0 0.00 1.18 0.00 83 999.0
20260902024404 84 274 0.0 2.0 0.00 1.18 0.00 83 999.1
20260902022904 83 273 0.0 1.0 0.00 1.18 0.00 84 999.2
20260902022404 83 269 0.0 1.0 0.00 1.18 0.00 85 999.3
20260902021404 82 224 0.0 1.0 0.00 1.18 0.00 85 999.3
20260902020904 82 318 0.0 1.0 0.00 1.18 0.00 85 999.3
20260902020404 82 282 0.0 2.0 0.00 1.18 0.00 85 999.3
20260902015404 82 288 0.0 1.0 0.00 1.18 0.00 86 999.3
20260902014904 82 287 0.0 1.0 0.00 1.18 0.00 86 999.3
20260902014404 81 271 0.0 2.0 0.00 1.18 0.00 86 999.3
20260902013404 81 270 0.0 1.0 0.00 1.18 0.00 87 999.2
20260902012904 81 280 0.0 1.0 0.00 1.18 0.00 87 999.2
20260902012404 81 280 0.0 0.0 0.00 1.18 0.00 88 999.2
20260902011904 81 291 0.0 1.0 0.00 1.18 0.00 88 999.2
20260902011404 81 295 0.0 1.0 0.00 1.18 0.00 88 999.1
20260902010904 80 295 0.0 1.0 0.00 1.18 0.00 89 999.1
20260902010404 80 295 0.0 1.0 0.00 1.20 0.00 89 999.0
20260902005904 80 307 0.0 0.0 0.00 1.20 0.00 89 999.0
20260902005404 80 19 1.0 5.0 0.00 1.20 0.00 89 999.0
20260902004904 80 12 0.0 1.0 0.00 1.20 0.00 89 999.1
20260902003904 79 2 0.0 3.0 0.00 1.20 0.00 89 999.0
20260902003404 79 284 1.0 3.0 0.00 1.20 0.00 89 999.0
20260902002904 79 309 0.0 1.0 0.00 1.20 0.00 90 999.0
20260902002404 79 224 1.0 3.0 0.00 1.20 0.00 90 999.1
20260902001904 79 262 0.0 3.0 0.00 1.20 0.00 90 999.2
20260902001404 79 268 0.0 0.0 0.00 1.20 0.00 90 999.1
20260902000904 79 335 0.0 0.0 0.00 1.20 0.00 90 999.0
20260902000404 79 339 0.0 0.0 0.00 1.20 0.00 90 998.9
20260901235904 79 352 0.0 1.0 0.00 1.20 0.00 90 998.9
20260901235404 79 11 0.0 2.0 0.00 1.20 0.00 90 998.7
20260901234904 79 298 0.0 1.0 0.00 1.20 0.00 91 998.6
20260901234403 79 298 0.0 1.0 0.00 1.20 0.00 91 998.6
20260901233904 79 334 0.0 3.0 0.00 1.20 0.00 91 998.6
20260901233404 79 285 0.0 2.0 0.00 1.20 0.00 91 998.4
20260901232903 79 343 0.0 2.0 0.00 1.20 0.00 91 998.3
20260901231904 79 264 1.0 3.0 0.00 1.20 0.00 91 998.3
20260901231404 79 211 2.0 5.0 0.00 1.20 0.00 91 998.4
20260901230904 79 260 1.0 3.0 0.00 1.20 0.00 91 998.4
20260901230404 79 254 1.0 3.0 0.00 1.20 0.00 91 998.2
20260901225904 79 288 0.0 0.0 0.00 1.20 0.00 91 998.1
20260901225404 79 293 0.0 0.0 0.00 1.20 0.00 92 998.1
20260901224404 79 288 0.0 0.0 0.00 1.20 0.00 92 997.9
20260901223904 79 311 0.0 2.0 0.00 1.20 0.00 91 997.9
20260901223404 79 355 0.0 2.0 0.00 1.20 0.00 91 997.9
20260901222404 79 262 0.0 0.0 0.00 1.20 0.00 92 998.0
20260901221904 79 260 0.0 1.0 0.00 1.20 0.00 92 997.9
20260901220904 79 259 0.0 0.0 0.00 1.20 0.00 92 997.9
20260901215904 79 262 1.0 3.0 0.00 1.20 0.00 92 997.7
20260901215404 79 302 0.0 0.0 0.00 1.20 0.00 92 997.8
20260901214904 79 337 0.0 0.0 0.00 1.20 0.00 92 997.7
20260901214405 79 337 0.0 1.0 0.00 1.20 0.00 92 997.7
20260901212904 79 338 0.0 1.0 0.00 1.20 0.00 92 997.8
20260901212403 79 340 0.0 5.0 0.00 1.20 0.00 92 997.7
20260901211904 79 309 0.0 1.0 0.00 1.20 0.00 92 997.8
20260901211404 79 318 0.0 1.0 0.00 1.20 0.00 92 997.7
20260901210904 79 317 0.0 0.0 0.00 1.20 0.00 93 997.7
20260901210403 79 318 0.0 0.0 0.00 1.20 0.00 93 997.7
20260901205904 79 248 0.0 1.0 0.00 1.20 0.00 93 997.7
20260901204904 79 254 0.0 2.0 0.00 1.20 0.00 92 997.7
20260901204404 79 283 0.0 1.0 0.00 1.20 0.00 92 997.7
20260901203904 79 271 0.0 0.0 0.00 1.20 0.00 92 997.7
20260901202904 79 290 0.0 2.0 0.00 1.20 0.00 92 997.4
20260901202404 79 272 0.0 0.0 0.00 1.20 0.00 92 997.5
20260901201904 80 271 0.0 2.0 0.00 1.20 0.00 92 997.5
20260901201404 79 277 0.0 1.0 0.00 1.20 0.00 92 997.6
20260901200904 79 277 0.0 1.0 0.00 1.20 0.00 92 997.6
20260901195903 79 335 0.0 2.0 0.00 1.20 0.00 92 997.7
20260901195403 79 42 0.0 3.0 0.00 1.20 0.00 92 997.5
20260901194404 79 273 0.0 1.0 0.00 1.20 0.00 92 997.6
20260901193903 79 273 0.0 3.0 0.00 1.20 0.00 92 997.7
20260901193404 79 266 0.0 0.0 0.00 1.20 0.00 92 997.7
20260901192904 79 266 0.0 1.0 0.00 1.20 0.00 92 997.7
20260901192404 79 265 0.0 1.0 0.00 1.20 0.00 93 997.7
20260901191904 79 262 0.0 1.0 0.00 1.20 0.00 92 997.8
20260901191404 79 261 0.0 0.0 0.00 1.20 0.00 93 997.8
20260901190903 79 259 0.0 1.0 0.00 1.20 0.00 93 997.8
20260901190403 79 256 0.0 1.0 0.00 1.20 0.00 93 997.8
20260901185904 79 347 0.0 2.0 0.00 1.20 0.00 93 997.9
20260901185404 79 350 0.0 0.0 0.00 1.20 0.00 93 997.8
20260901184404 79 102 0.0 2.0 0.00 1.20 0.00 93 997.7
20260901183904 79 237 0.0 2.0 0.00 1.20 0.00 93 997.8
20260901182904 79 57 0.0 2.0 0.00 1.20 0.00 93 997.7
20260901181904 79 264 0.0 1.0 0.00 1.20 0.00 94 997.8
20260901181404 79 262 0.0 1.0 0.00 1.20 0.00 94 997.8
20260901180904 79 261 0.0 2.0 0.00 1.20 0.00 94 997.8
20260901180404 79 256 0.0 2.0 0.00 1.20 0.00 94 997.7
20260901175904 79 250 0.0 2.0 0.00 1.20 0.00 94 997.7
20260901174904 79 357 1.0 2.0 0.00 1.20 0.00 94 997.8
20260901174404 80 266 0.0 2.0 0.00 1.20 0.00 94 997.9
20260901173904 80 287 0.0 1.0 0.00 1.20 0.00 94 997.9
20260901173404 80 310 0.0 2.0 0.00 1.20 0.00 94 997.8
20260901172904 80 9 0.0 3.0 0.00 1.20 0.00 94 997.9
20260901172404 80 281 0.0 0.0 0.00 1.20 0.00 94 997.9
20260901171903 80 281 0.0 1.0 0.00 1.20 0.00 94 997.9
20260901170904 80 328 0.0 3.0 0.00 1.20 0.00 94 998.1
20260901170403 80 45 1.0 3.0 0.00 1.20 0.00 94 998.1
20260901165904 80 308 0.0 1.0 0.00 1.20 0.00 94 998.2
20260901165403 80 326 0.0 0.0 0.00 1.20 0.00 94 998.1
20260901164904 80 359 0.0 1.0 0.00 1.20 0.00 95 998.2
20260901164404 80 287 0.0 1.0 0.00 1.20 0.00 95 998.2
20260901163904 80 289 0.0 1.0 0.01 1.20 0.00 95 998.3
20260901163404 80 278 0.0 1.0 0.01 1.20 0.00 95 998.3
20260901162904 80 283 0.0 0.0 0.01 1.20 0.00 95 998.3
20260901162404 80 283 0.0 1.0 0.01 1.20 0.00 96 998.3
20260901160904 80 264 0.0 0.0 0.03 1.20 0.00 96 998.4
20260901160404 80 264 0.0 1.0 0.03 1.20 0.00 95 998.4
20260901155905 80 262 0.0 2.0 0.03 1.20 1.20 96 998.5
20260901155404 80 304 0.0 1.0 0.03 1.20 1.20 96 998.6
20260901154904 80 303 0.0 1.0 0.03 1.20 1.20 96 998.5
20260901154404 80 303 0.0 1.0 0.03 1.20 1.20 95 998.5
20260901153904 80 314 0.0 2.0 0.03 1.19 1.19 95 998.5
20260901153404 80 317 0.0 1.0 0.03 1.19 1.19 95 998.3
20260901152404 80 37 2.0 5.0 0.04 1.19 1.19 95 998.4
20260901151904 80 30 2.0 5.0 0.04 1.18 1.18 95 998.3
20260901150904 80 350 0.0 2.0 0.05 1.17 1.17 95 998.3
20260901150404 80 39 2.0 3.0 0.07 1.17 1.17 95 998.2
20260901145904 80 348 1.0 2.0 0.08 1.17 1.17 95 998.3
20260901144904 80 320 0.0 0.0 0.10 1.17 1.17 95 998.3
20260901144404 80 320 0.0 1.0 0.13 1.17 1.17 95 998.3
20260901143904 80 321 0.0 0.0 0.14 1.16 1.16 95 998.3
20260901143404 80 322 0.0 1.0 0.17 1.16 1.16 96 998.3
20260901142904 80 322 0.0 1.0 0.22 1.16 1.16 95 998.2
20260901142404 80 351 0.0 3.0 0.29 1.15 1.15 95 998.3
20260901141904 80 314 0.0 0.0 0.30 1.14 1.14 95 998.2
20260901141404 80 314 0.0 1.0 0.31 1.13 1.13 95 998.2
20260901140404 80 316 0.0 1.0 0.30 1.10 1.10 95 998.1
20260901135404 81 326 1.0 3.0 0.30 1.08 1.08 94 998.0
20260901134904 81 35 1.0 3.0 0.29 1.07 1.07 94 998.1
20260901134404 81 349 0.0 1.0 0.26 1.04 1.04 94 998.0
20260901133904 81 7 0.0 0.0 0.24 1.02 1.02 94 998.0
20260901133404 82 8 0.0 0.0 0.21 0.99 0.99 93 998.0
20260901132904 82 12 0.0 3.0 0.16 0.94 0.94 92 997.8
20260901132404 82 349 0.0 2.0 0.08 0.86 0.86 91 997.7
20260901131404 82 337 0.0 1.0 0.04 0.82 0.82 90 997.5
20260901130904 83 327 1.0 3.0 0.03 0.81 0.81 89 997.4
20260901130404 83 35 1.0 3.0 0.02 0.81 0.80 88 997.3
20260901125904 83 45 1.0 2.0 0.01 0.80 0.79 87 997.2
20260901125404 84 8 0.0 2.0 0.00 0.80 0.78 87 997.1
20260901124903 84 349 1.0 3.0 0.00 0.80 0.78 87 997.2
20260901124404 83 26 1.0 2.0 0.00 0.81 0.78 87 997.1
20260901123904 83 327 1.0 6.0 0.00 0.81 0.78 87 997.1
20260901123404 83 45 2.0 5.0 0.00 0.81 0.78 87 997.2
20260901122904 83 46 1.0 3.0 0.00 0.81 0.78 87 997.0
20260901122404 83 23 0.0 2.0 0.00 0.81 0.78 87 996.8
20260901121904 83 274 0.0 0.0 0.00 0.81 0.78 88 996.8
20260901121404 83 343 0.0 0.0 0.00 0.81 0.78 88 996.8
20260901120904 83 319 1.0 2.0 0.00 0.81 0.78 88 996.8
20260901120404 83 336 0.0 1.0 0.00 0.81 0.78 89 996.8
20260901115904 83 327 1.0 2.0 0.01 0.81 0.78 89 996.7
20260901115404 83 313 0.0 1.0 0.04 0.81 0.78 90 996.8
20260901114904 83 318 0.0 1.0 0.09 0.81 0.78 91 996.6
20260901114404 83 318 0.0 1.0 0.11 0.81 0.78 91 996.6
20260901113904 83 320 0.0 1.0 0.13 0.81 0.78 91 996.5
20260901112904 82 319 0.0 1.0 0.13 0.81 0.78 91 996.4
20260901111404 82 4 1.0 2.0 0.13 0.81 0.78 92 996.5
20260901110904 83 272 0.0 1.0 0.13 0.81 0.78 92 996.4
20260901110404 83 269 0.0 0.0 0.13 0.81 0.78 92 996.4
20260901105904 83 9 0.0 2.0 0.12 0.80 0.77 91 996.4
20260901105404 84 52 1.0 3.0 0.09 0.77 0.74 89 996.4
20260901104904 85 347 1.0 3.0 0.04 0.72 0.69 87 996.3
20260901104404 85 321 0.0 1.0 0.02 0.70 0.67 86 996.2
20260901103904 85 325 0.0 0.0 0.00 0.68 0.65 86 996.1
20260901103404 85 335 0.0 0.0 0.00 0.68 0.65 86 996.0
20260901102904 85 339 0.0 0.0 0.00 0.68 0.65 86 996.0
20260901102404 85 325 0.0 0.0 0.00 0.68 0.65 87 996.0
20260901101903 85 328 0.0 0.0 0.00 0.68 0.65 87 996.0
20260901101404 85 331 0.0 0.0 0.00 0.68 0.65 87 996.0
20260901100904 85 333 0.0 0.0 0.00 0.68 0.65 86 996.0
20260901095904 85 341 0.0 2.0 0.00 0.68 0.65 85 995.9
20260901095404 85 350 0.0 2.0 0.00 0.68 0.65 85 995.8
20260901094904 85 0 1.0 2.0 0.00 0.68 0.65 86 995.9
20260901094404 85 306 0.0 0.0 0.00 0.68 0.65 86 996.0
20260901093904 85 335 0.0 1.0 0.00 0.68 0.65 86 996.0
20260901093404 85 343 0.0 1.0 0.00 0.68 0.65 86 996.0
20260901092904 85 346 0.0 3.0 0.00 0.68 0.65 86 996.0
20260901091905 85 23 0.0 2.0 0.00 0.69 0.65 86 995.8
20260901090904 85 49 1.0 3.0 0.00 0.69 0.65 86 995.7
20260901090404 85 320 0.0 2.0 0.00 0.69 0.65 86 995.6
20260901085904 85 353 1.0 3.0 0.00 0.69 0.65 86 995.6
20260901085404 85 345 1.0 3.0 0.00 0.69 0.65 86 995.7
20260901084904 85 8 1.0 3.0 0.00 0.69 0.65 86 995.6
20260901084403 85 12 2.0 5.0 0.00 0.69 0.65 86 995.6
20260901083903 84 47 1.0 5.0 0.00 0.69 0.65 86 995.6
20260901083404 84 348 0.0 3.0 0.00 0.69 0.65 87 995.7
20260901082904 84 321 0.0 3.0 0.00 0.69 0.65 86 995.7
20260901082404 84 319 1.0 3.0 0.00 0.69 0.65 86 995.8
20260901081904 84 27 1.0 3.0 0.00 0.69 0.65 87 995.7
20260901081404 84 344 0.0 3.0 0.00 0.69 0.65 87 995.6
20260901080904 84 22 1.0 3.0 0.00 0.69 0.65 87 995.6
20260901080404 84 325 1.0 3.0 0.00 0.69 0.65 87 995.6
20260901075904 84 329 2.0 3.0 0.00 0.69 0.65 87 995.6
20260901075404 84 344 2.0 3.0 0.00 0.69 0.65 87 995.6
20260901074904 84 329 0.0 3.0 0.00 0.69 0.65 88 995.6
20260901074404 84 304 1.0 3.0 0.00 0.69 0.65 87 995.6
20260901073904 84 42 0.0 3.0 0.00 0.69 0.65 87 995.6
20260901073404 84 54 1.0 3.0 0.00 0.69 0.65 87 995.7
20260901072903 84 36 1.0 3.0 0.00 0.69 0.65 87 995.7
20260901072404 84 329 0.0 3.0 0.00 0.69 0.65 87 995.7
20260901071904 84 16 1.0 3.0 0.00 0.69 0.65 87 995.7
20260901071404 84 306 0.0 1.0 0.00 0.69 0.65 88 995.7
20260901070904 84 336 1.0 3.0 0.00 0.69 0.65 88 995.8
20260901070404 83 36 1.0 7.0 0.00 0.69 0.65 88 995.8
20260901065904 83 68 2.0 6.0 0.00 0.69 0.65 88 995.8
20260901064404 83 54 2.0 6.0 0.00 0.69 0.65 89 996.0
20260901063904 83 53 3.0 6.0 0.00 0.70 0.65 88 996.0
20260901063404 83 37 2.0 3.0 0.00 0.70 0.65 89 996.0
20260901061903 83 2 0.0 3.0 0.00 0.70 0.65 91 996.1
20260901061404 82 77 1.0 3.0 0.00 0.70 0.65 91 996.1
20260901060904 82 51 1.0 3.0 0.00 0.70 0.65 91 996.1
20260901055904 82 42 0.0 3.0 0.01 0.70 0.65 92 996.2
20260901055404 82 331 1.0 3.0 0.01 0.70 0.65 92 996.2
20260901054904 81 58 4.0 7.0 0.02 0.71 0.65 92 996.3
20260901054404 82 41 1.0 3.0 0.02 0.74 0.65 93 996.4
20260901053404 81 39 2.0 3.0 0.03 0.91 0.65 93 996.6
20260901052904 81 20 0.0 2.0 0.04 0.97 0.65 94 996.7
20260901051404 81 1 2.0 7.0 0.08 1.34 0.65 94 997.0
20260901050904 81 33 2.0 6.0 0.09 1.49 0.65 94 997.1
20260901050404 81 54 3.0 7.0 0.12 1.56 0.64 94 997.1
20260901045904 81 49 2.0 8.0 0.14 1.61 0.64 94 997.2
20260901045404 81 63 2.0 9.0 0.18 1.63 0.64 94 997.2
20260901044404 80 3 1.0 6.0 0.46 1.67 0.63 95 997.4
20260901043904 80 51 4.0 9.0 0.51 1.66 0.62 95 997.4
20260901043404 80 53 2.0 7.0 0.56 1.67 0.62 95 997.5
20260901042904 80 49 3.0 8.0 0.56 1.66 0.61 95 997.5
20260901042404 80 2 2.0 7.0 0.56 1.65 0.60 95 997.6
20260901041904 80 63 3.0 7.0 0.55 1.64 0.59 95 997.6
20260901041404 80 242 2.0 6.0 0.53 1.63 0.57 96 997.6
20260901040904 80 22 2.0 7.0 0.52 1.62 0.56 95 997.7
20260901040404 80 65 2.0 6.0 0.48 1.58 0.52 95 997.7
20260901035903 80 43 2.0 13.0 0.47 1.56 0.50 95 997.7
20260901035404 81 67 1.0 3.0 0.43 1.53 0.46 95 997.8